Overview Statistics Trail Chart Weather Telemetry Raw packets
 

This is the latest recevied weather packets stored in our database for station/object TB1YZC-13. If no packets are shown the sender has not sent any weather packets the latest 10 day(s).

<< 1 2 3 4 5 6 7 >>
Time Temp. Humidity Pressure Rain* Wind** Luminosity Snow
1788626274 26.11° C 46% 1017.4 hPa - - - -
1788625671 26.67° C 43% 1017.3 hPa - - - -
1788625068 26.67° C 40% 1017.3 hPa - - - -
1788624464 27.22° C 40% 1017.2 hPa - - - -
1788623861 27.22° C 40% 1017.2 hPa - - - -
1788623258 27.78° C 40% 1017.1 hPa - - - -
1788622655 27.78° C 39% 1017 hPa - - - -
1788622052 28.33° C 38% 1017.1 hPa - - - -
1788621449 28.33° C 37% 1017 hPa - - - -
1788620845 28.33° C 37% 1017.1 hPa - - - -
1788620242 28.89° C 35% 1017.1 hPa - - - -
1788619639 29.44° C 34% 1017.1 hPa - - - -
1788619036 29.44° C 33% 1017.1 hPa - - - -
1788618432 29.44° C 32% 1017 hPa - - - -
1788617829 30° C 32% 1017.1 hPa - - - -
1788617227 31.67° C 30% 1017 hPa - - - -
1788616623 32.22° C 29% 1017.1 hPa - - - -
1788616020 32.22° C 28% 1017.2 hPa - - - -
1788615417 32.22° C 29% 1017.2 hPa - - - -
1788614813 31.67° C 29% 1017.3 hPa - - - -
1788614210 33.33° C 28% 1017.3 hPa - - - -
1788613607 32.22° C 29% 1017.5 hPa - - - -
1788613004 32.78° C 29% 1017.5 hPa - - - -
1788612431 33.33° C 29% 1017.6 hPa - - - -
1788611798 31.67° C 30% 1017.8 hPa - - - -

* Rain since midnight (hover to see other rain measurements)
** Current wind speed in m/s (hover to see current wind gust speed)